Tracking 28790 objects as of 19-Apr-2024
HD Live streaming from Space Station
objects crossing your sky now

NOAA 16 DEB

Track NOAA 16 DEB now!
10-day predictions


NORAD ID: 41515
Int'l Code: 2000-055MP
Perigee: 725.7 km
Apogee: 733.7 km
Inclination: 99.0 °
Period: 99.2 minutes
Semi major axis: 7100 km
RCS: Unknown
Launch date: September 21, 2000
Source: United States (US)
Launch site: AIR FORCE WESTERN TEST RANGE (AFWTR)

Note: This is SATELLITE DEBRIS
Your satellite tracking list
Your tracking list is empty




NASA's NSSDC Master Catalog

Two Line Element Set (TLE):
1 41515U 00055MP  24109.71876947  .00052441  00000-0  13177-1 0  9997
2 41515  98.9708 291.7882 0005617 316.4129  43.6620 14.50951861415596
Source of the keplerian elements: AFSPC